Starlink 34965

operational
NORAD ID: 65186 Int'l Des: 2025-175 Owner: SPXS Country: US Constellation: starlink
LEOCIRCULARRETROGRADESSO

Über Starlink 34965

Beschreibung wird geladen...

Live-Position

3D-Globus wird geladen...

Nächste Überflüge

Höhenverlauf

Altitude vs Time

uPlot chart will show altitude changes over time

Zweizeiliger Elementsatz

1 65186U 25175N 25340.93177904 .00012392 00000-0 86130-3 0 9998
2 65186 97.6019 211.2377 0002138 74.3814 285.7648 15.05660186 18685
Epoch: 6. Dez. 2025 • Age: 20 hours

Aktueller Status

Höhe 557.6 km
Geschwindigkeit 7.58 km/s
Subsatellitenpunkt -18.49°S, 37.03°E
Startdatum 14. Aug. 2025
Alter 0.3 years
Typ internet

Technische Details

Klassifizierung Payload
Masse 575.00 kg
Trockenmasse 530.00 kg
Gesamtmasse 575.00 kg
Länge 0.30 m
Durchmesser 4.10 m
Spannweite 29.00 m
Form Box + pan
Hersteller SPXS
Bus-Typ Starlink V2MO
Phasenstatus In Orbit
Besitzer/Staat SPXS/US

Große Konstellationen

Loading constellations...